W9IF-4 Weather Reports


Display with metric or nautical units.
time (UTC)temp
F
wind
direction
speed
MPH
gust
MPH
rain 1hr
in
rain 24hr
in
rain mn
in
humidity
%
barometer
mb
20140921180932 77 291 6.0 0.0 0.00 0.00 0.00 1018.8
20140921180832 77 277 7.0 0.0 0.00 0.00 0.00 1018.8
20140921180632 77 262 9.0 0.0 0.00 0.00 0.00 1018.8
20140921180531 77 283 8.0 0.0 0.00 0.00 0.00 1018.8
20140921180432 78 297 9.0 0.0 0.00 0.00 0.00 1018.8
20140921180331 77 281 9.0 0.0 0.00 0.00 0.00 1018.8
20140921180231 77 256 5.0 0.0 0.00 0.00 0.00 1018.8
20140921180131 77 288 9.0 0.0 0.00 0.00 0.00 1018.8
20140921180031 77 281 8.0 0.0 0.00 0.00 0.00 1018.8
20140921175932 77 285 7.0 0.0 0.00 0.00 0.00 1018.8
20140921175832 77 221 8.0 0.0 0.00 0.00 0.00 1018.8
20140921175732 77 255 8.0 0.0 0.00 0.00 0.00 1018.8
20140921175631 76 287 10.0 0.0 0.00 0.00 0.00 1018.8
20140921175531 77 283 11.0 0.0 0.00 0.00 0.00 1018.9
20140921175431 77 262 7.0 0.0 0.00 0.00 0.00 1018.9
20140921175332 77 287 10.0 0.0 0.00 0.00 0.00 1018.8
20140921175232 77 288 8.0 0.0 0.00 0.00 0.00 1018.8
20140921175131 78 283 9.0 0.0 0.00 0.00 0.00 1018.8
20140921174932 77 260 7.0 0.0 0.00 0.00 0.00 1018.8
20140921174731 78 248 8.0 0.0 0.00 0.00 0.00 1018.9
20140921174531 78 283 7.0 0.0 0.00 0.00 0.00 1018.9
20140921174431 78 266 5.0 0.0 0.00 0.00 0.00 1018.9
20140921174232 78 269 7.0 0.0 0.00 0.00 0.00 1018.9
20140921174132 77 263 9.0 0.0 0.00 0.00 0.00 1018.9
20140921174032 77 288 8.0 0.0 0.00 0.00 0.00 1018.9
20140921173932 78 288 10.0 0.0 0.00 0.00 0.00 1018.8
20140921173831 77 277 6.0 0.0 0.00 0.00 0.00 1018.9
20140921173731 76 252 8.0 0.0 0.00 0.00 0.00 1018.9
20140921173632 76 280 10.0 0.0 0.00 0.00 0.00 1018.9
20140921173431 77 287 10.0 0.0 0.00 0.00 0.00 1018.9
20140921173332 77 271 9.0 0.0 0.00 0.00 0.00 1018.9
20140921173131 78 274 8.0 0.0 0.00 0.00 0.00 1018.9
20140921173031 77 259 6.0 0.0 0.00 0.00 0.00 1018.9
20140921172932 77 263 5.0 0.0 0.00 0.00 0.00 1018.9
20140921172831 76 297 8.0 0.0 0.00 0.00 0.00 1018.9
20140921172532 76 285 6.0 0.0 0.00 0.00 0.00 1018.9
20140921172331 76 290 8.0 0.0 0.00 0.00 0.00 1018.9
20140921172032 76 287 9.0 0.0 0.00 0.00 0.00 1018.9
20140921171931 76 267 9.0 0.0 0.00 0.00 0.00 1018.9
20140921171831 76 285 9.0 0.0 0.00 0.00 0.00 1018.9
20140921171532 77 308 6.0 0.0 0.00 0.00 0.00 1018.9
20140921171431 77 277 7.0 0.0 0.00 0.00 0.00 1018.9
20140921171331 76 304 6.0 0.0 0.00 0.00 0.00 1018.9
20140921171232 75 280 8.0 0.0 0.00 0.00 0.00 1018.9
20140921171132 76 290 7.0 0.0 0.00 0.00 0.00 1018.9
20140921171031 75 295 8.0 0.0 0.00 0.00 0.00 1018.8
20140921170931 76 290 9.0 0.0 0.00 0.00 0.00 1018.8
20140921170832 77 277 8.0 0.0 0.00 0.00 0.00 1018.8
20140921170732 77 281 5.0 0.0 0.00 0.00 0.00 1018.9
20140921170631 77 288 9.0 0.0 0.00 0.00 0.00 1018.9
20140921170531 76 285 7.0 0.0 0.00 0.00 0.00 1018.8
20140921170331 76 274 0.0 0.0 0.00 0.00 0.00 1018.9
20140921170231 76 277 6.0 0.0 0.00 0.00 0.00 1018.9
20140921170031 76 300 7.0 0.0 0.00 0.00 0.00 1018.9
20140921165931 75 277 8.0 0.0 0.00 0.00 0.00 1018.9
20140921165831 77 315 8.0 0.0 0.00 0.00 0.00 1018.9
20140921165731 77 281 8.0 0.0 0.00 0.00 0.00 1018.9
20140921165631 77 271 6.0 0.0 0.00 0.00 0.00 1018.8
20140921165531 77 305 6.0 0.0 0.00 0.00 0.00 1018.9
20140921165432 77 276 7.0 0.0 0.00 0.00 0.00 1018.9
20140921165331 77 276 7.0 0.0 0.00 0.00 0.00 1018.9
20140921165231 77 257 4.0 0.0 0.00 0.00 0.00 1018.9
20140921165131 76 291 5.0 0.0 0.00 0.00 0.00 1018.9
20140921165031 76 294 6.0 0.0 0.00 0.00 0.00 1018.9
20140921164931 75 316 0.0 0.0 0.00 0.00 0.00 1018.9
20140921164831 75 316 5.0 0.0 0.00 0.00 0.00 1018.9
20140921164731 75 277 4.0 0.0 0.00 0.00 0.00 1018.9
20140921164632 75 301 5.0 0.0 0.00 0.00 0.00 1018.8
20140921164432 75 278 8.0 0.0 0.00 0.00 0.00 1018.8
20140921164331 75 267 5.0 0.0 0.00 0.00 0.00 1018.8
20140921164231 76 300 5.0 0.0 0.00 0.00 0.00 1018.8
20140921164131 76 287 7.0 0.0 0.00 0.00 0.00 1018.8
20140921164032 76 270 5.0 0.0 0.00 0.00 0.00 1018.8
20140921163931 76 263 0.0 0.0 0.00 0.00 0.00 1018.8
20140921163831 75 281 6.0 0.0 0.00 0.00 0.00 1018.8
20140921163731 75 277 6.0 0.0 0.00 0.00 0.00 1018.8
20140921163631 75 285 5.0 0.0 0.00 0.00 0.00 1018.8
20140921163531 75 290 5.0 0.0 0.00 0.00 0.00 1018.8
20140921163431 75 278 7.0 0.0 0.00 0.00 0.00 1018.8
20140921163331 75 283 7.0 0.0 0.00 0.00 0.00 1018.8
20140921163231 76 290 7.0 0.0 0.00 0.00 0.00 1018.8
20140921163131 76 284 5.0 0.0 0.00 0.00 0.00 1018.8
20140921163031 76 203 0.0 0.0 0.00 0.00 0.00 1018.8
20140921162931 76 270 2.0 0.0 0.00 0.00 0.00 1018.8
20140921162831 77 301 6.0 0.0 0.00 0.00 0.00 1018.8
20140921162731 76 283 5.0 0.0 0.00 0.00 0.00 1018.8
20140921162631 76 283 3.0 0.0 0.00 0.00 0.00 1018.8
20140921162531 76 290 5.0 0.0 0.00 0.00 0.00 1018.8
20140921162431 76 309 4.0 0.0 0.00 0.00 0.00 1018.8
20140921162332 75 276 3.0 0.0 0.00 0.00 0.00 1018.7
20140921162231 75 283 6.0 0.0 0.00 0.00 0.00 1018.7
20140921162031 75 276 6.0 0.0 0.00 0.00 0.00 1018.7
20140921161931 74 302 6.0 0.0 0.00 0.00 0.00 1018.7
20140921161833 75 304 6.0 0.0 0.00 0.00 0.00 1018.7
20140921161431 74 277 0.0 0.0 0.00 0.00 0.00 1018.7
20140921161231 74 270 0.0 0.0 0.00 0.00 0.00 1018.8
20140921161131 74 270 0.0 0.0 0.00 0.00 0.00 1018.7
20140921161031 73 304 6.0 0.0 0.00 0.00 0.00 1018.7
20140921160931 73 302 5.0 0.0 0.00 0.00 0.00 1018.7
20140921160631 73 315 6.0 0.0 0.00 0.00 0.00 1018.6
20140921160531 74 302 6.0 0.0 0.00 0.00 0.00 1018.7
20140921160431 73 302 5.0 0.0 0.00 0.00 0.00 1018.7
20140921160331 73 301 4.0 0.0 0.00 0.00 0.00 1018.7
20140921160231 72 318 0.0 0.0 0.00 0.00 0.00 1018.7
20140921160131 72 328 3.0 0.0 0.00 0.00 0.00 1018.7
20140921160031 73 307 2.0 0.0 0.00 0.00 0.00 1018.7
20140921155931 74 293 0.0 0.0 0.00 0.00 0.00 1018.7
20140921155831 74 293 0.0 0.0 0.00 0.00 0.00 1018.6
20140921155731 74 293 0.0 0.0 0.00 0.00 0.00 1018.7
20140921155631 74 301 5.0 0.0 0.00 0.00 0.00 1018.6
20140921155531 73 274 0.0 0.0 0.00 0.00 0.00 1018.7
20140921155331 73 274 0.0 0.0 0.00 0.00 0.00 1018.6
20140921155231 74 274 3.0 0.0 0.00 0.00 0.00 1018.7
20140921155131 74 290 0.0 0.0 0.00 0.00 0.00 1018.6
20140921155031 74 290 0.0 0.0 0.00 0.00 0.00 1018.7
20140921154931 74 290 0.0 0.0 0.00 0.00 0.00 1018.7
20140921154831 74 290 0.0 0.0 0.00 0.00 0.00 1018.7
20140921154731 74 290 0.0 0.0 0.00 0.00 0.00 1018.7
20140921154531 73 290 0.0 0.0 0.00 0.00 0.00 1018.7
20140921154431 73 290 0.0 0.0 0.00 0.00 0.00 1018.7
20140921154331 73 290 0.0 0.0 0.00 0.00 0.00 1018.6
20140921154231 73 290 0.0 0.0 0.00 0.00 0.00 1018.7
20140921154131 73 290 0.0 0.0 0.00 0.00 0.00 1018.6
20140921154031 72 290 0.0 0.0 0.00 0.00 0.00 1018.6
20140921153931 73 290 0.0 0.0 0.00 0.00 0.00 1018.6
20140921153831 72 290 0.0 0.0 0.00 0.00 0.00 1018.6
20140921153731 72 290 0.0 0.0 0.00 0.00 0.00 1018.5
20140921153631 72 290 0.0 0.0 0.00 0.00 0.00 1018.6
20140921153531 72 290 0.0 0.0 0.00 0.00 0.00 1018.6
20140921153431 72 290 0.0 0.0 0.00 0.00 0.00 1018.6
20140921153331 72 290 0.0 0.0 0.00 0.00 0.00 1018.6
20140921153131 71 298 4.0 0.0 0.00 0.00 0.00 1018.6
20140921153031 71 281 4.0 0.0 0.00 0.00 0.00 1018.6
20140921152931 71 326 3.0 0.0 0.00 0.00 0.00 1018.6
20140921152731 71 322 5.0 0.0 0.00 0.00 0.00 1018.6
20140921152631 71 170 0.0 0.0 0.00 0.00 0.00 1018.6
20140921152531 71 170 0.0 0.0 0.00 0.00 0.00 1018.6
20140921152432 72 170 0.0 0.0 0.00 0.00 0.00 1018.6
20140921152331 72 170 0.0 0.0 0.00 0.00 0.00 1018.6
20140921152231 71 170 0.0 0.0 0.00 0.00 0.00 1018.6
20140921152031 72 170 0.0 0.0 0.00 0.00 0.00 1018.6
20140921151931 72 170 0.0 0.0 0.00 0.00 0.00 1018.6
20140921151831 71 170 0.0 0.0 0.00 0.00 0.00 1018.5
20140921151531 71 38 0.0 0.0 0.00 0.00 0.00 1018.5
20140921151431 71 38 0.0 0.0 0.00 0.00 0.00 1018.5
20140921151331 71 38 0.0 0.0 0.00 0.00 0.00 1018.5
20140921151231 71 38 0.0 0.0 0.00 0.00 0.00 1018.5
20140921151131 70 38 0.0 0.0 0.00 0.00 0.00 1018.5
20140921151031 70 38 0.0 0.0 0.00 0.00 0.00 1018.5
20140921150831 70 38 0.0 0.0 0.00 0.00 0.00 1018.5
20140921150731 70 38 0.0 0.0 0.00 0.00 0.00 1018.4
20140921150631 70 39 3.0 0.0 0.00 0.00 0.00 1018.5
20140921150531 70 51 0.0 0.0 0.00 0.00 0.00 1018.5
20140921150431 70 51 0.0 0.0 0.00 0.00 0.00 1018.4
20140921145931 70 42 3.0 0.0 0.00 0.00 0.00 1018.4
20140921145831 70 6 6.0 0.0 0.00 0.00 0.00 1018.4
20140921145731 70 25 5.0 0.0 0.00 0.00 0.00 1018.4
20140921145631 70 13 7.0 0.0 0.00 0.00 0.00 1018.4
20140921145531 70 37 3.0 0.0 0.00 0.00 0.00 1018.4
20140921145431 70 56 0.0 0.0 0.00 0.00 0.00 1018.3
20140921145331 70 56 0.0 0.0 0.00 0.00 0.00 1018.3
20140921145231 70 56 0.0 0.0 0.00 0.00 0.00 1018.3
20140921145131 70 56 0.0 0.0 0.00 0.00 0.00 1018.3
20140921144931 69 56 0.0 0.0 0.00 0.00 0.00 1018.3
20140921144831 69 56 0.0 0.0 0.00 0.00 0.00 1018.3
20140921144531 69 56 0.0 0.0 0.00 0.00 0.00 1018.3
20140921144431 68 68 3.0 0.0 0.00 0.00 0.00 1018.3
20140921144331 69 56 4.0 0.0 0.00 0.00 0.00 1018.2
20140921144231 69 68 6.0 0.0 0.00 0.00 0.00 1018.2
20140921144131 68 59 6.0 0.0 0.00 0.00 0.00 1018.2
20140921144031 69 79 5.0 0.0 0.00 0.00 0.00 1018.3
20140921143931 69 80 6.0 0.0 0.00 0.00 0.00 1018.2
20140921143831 68 83 6.0 0.0 0.00 0.00 0.00 1018.2
20140921143731 69 89 6.0 0.0 0.00 0.00 0.00 1018.2
20140921143631 68 89 6.0 0.0 0.00 0.00 0.00 1018.2
20140921143531 68 87 6.0 0.0 0.00 0.00 0.00 1018.2
20140921143331 68 87 5.0 0.0 0.00 0.00 0.00 1018.1
20140921143231 68 93 5.0 0.0 0.00 0.00 0.00 1018.1
20140921143031 68 91 5.0 0.0 0.00 0.00 0.00 1018.1
20140921142831 68 59 5.0 0.0 0.00 0.00 0.00 1018.1
20140921142631 68 66 3.0 0.0 0.00 0.00 0.00 1018.1
20140921142531 68 66 3.0 0.0 0.00 0.00 0.00 1018.1
20140921142431 68 75 5.0 0.0 0.00 0.00 0.00 1018.0
20140921142331 68 66 3.0 0.0 0.00 0.00 0.00 1018.1
20140921142231 68 75 5.0 0.0 0.00 0.00 0.00 1018.1
20140921142131 68 73 0.0 0.0 0.00 0.00 0.00 1018.0
20140921142031 68 73 0.0 0.0 0.00 0.00 0.00 1018.0
20140921141931 68 73 0.0 0.0 0.00 0.00 0.00 1018.0
20140921141831 68 73 0.0 0.0 0.00 0.00 0.00 1018.0
20140921141632 68 73 0.0 0.0 0.00 0.00 0.00 1018.0
20140921141531 68 73 0.0 0.0 0.00 0.00 0.00 1018.0
20140921141431 68 73 0.0 0.0 0.00 0.00 0.00 1018.0
20140921141331 68 79 3.0 0.0 0.00 0.00 0.00 1017.9
20140921141231 68 77 4.0 0.0 0.00 0.00 0.00 1017.9
20140921141131 68 72 5.0 0.0 0.00 0.00 0.00 1017.9